This is the latest recevied weather packets stored in our database for station/object K4DNM. If no packets are shown the sender has not sent any weather packets the latest 10 day(s).
| Time | Temp. | Humidity | Pressure | Rain* | Wind** | Luminosity | Snow |
|---|---|---|---|---|---|---|---|
| 1777904097 | 19.44° C | 61% | 1016 hPa | 0 mm | - | 675 W/m² | - |
| 1777903795 | 18.89° C | 63% | 1016 hPa | 0 mm | - | 660 W/m² | - |
| 1777903492 | 18.33° C | 64% | 1016 hPa | 0 mm | - | 644 W/m² | - |
| 1777903189 | 18.33° C | 66% | 1016.1 hPa | 0 mm | - | 625 W/m² | - |
| 1777902889 | 18.33° C | 67% | 1016 hPa | 0 mm | - | 610 W/m² | - |
| 1777902590 | 18.33° C | 66% | 1016 hPa | 0 mm | - | 590 W/m² | - |
| 1777902291 | 18.33° C | 65% | 1016.1 hPa | 0 mm | - | 573 W/m² | - |
| 1777901992 | 18.33° C | 67% | 1016.2 hPa | 0 mm | - | 548 W/m² | - |
| 1777901751 | 18.33° C | 65% | 1016.2 hPa | 0 mm | - | 480 W/m² | - |
| 1777901392 | 18.33° C | 66% | 1016.2 hPa | 0 mm | - | 510 W/m² | - |
| 1777901090 | 17.78° C | 68% | 1016.2 hPa | 0 mm | - | 498 W/m² | - |
| 1777900793 | 17.22° C | 69% | 1016.2 hPa | 0 mm | - | 481 W/m² | - |
| 1777900491 | 17.22° C | 69% | 1016.2 hPa | 0 mm | - | 462 W/m² | - |
| 1777900189 | 17.22° C | 70% | 1016.3 hPa | 0 mm | - | 444 W/m² | - |
| 1777899884 | 16.67° C | 72% | 1016.2 hPa | 0 mm | - | 425 W/m² | - |
| 1777899583 | 16.11° C | 74% | 1016.3 hPa | 0 mm | - | 407 W/m² | - |
| 1777899279 | 15.56° C | 77% | 1016.2 hPa | 0 mm | - | 389 W/m² | - |
| 1777898979 | 15° C | 79% | 1016.2 hPa | 0 mm | - | 370 W/m² | - |
| 1777898680 | 15° C | 77% | 1016.3 hPa | 0 mm | - | 353 W/m² | - |
| 1777898381 | 15° C | 78% | 1016.3 hPa | 0 mm | - | 326 W/m² | - |
| 1777898140 | 14.44° C | 81% | 1016.4 hPa | 0 mm | - | 298 W/m² | - |
| 1777897780 | 13.89° C | 79% | 1016.3 hPa | 0 mm | - | 279 W/m² | - |
| 1777897479 | 13.89° C | 80% | 1016.3 hPa | 0 mm | - | 261 W/m² | - |
| 1777897242 | 13.33° C | 83% | 1016.5 hPa | 0 mm | - | 244 W/m² | - |
| 1777896940 | 13.33° C | 83% | 1016.5 hPa | 0 mm | - | 228 W/m² | - |
* Rain latest hour (hover to see other rain measurements)
** Current wind speed in m/s (hover to see current wind gust speed)